Regional Weather Roundup
Issued by NWS

Home | Current Version | Previous Version | Graphics & Text | Print | Product List | Glossary On
Versions: 1 2 3 4 5 6 7 8 9 10 11 12 13 14 15 16 17 18 19 20 21 22 23 24 25 26 27 28 29 30 31 32 33 34 35 36 37 38 39 40 41 42 43 44 45 46 47 48 49 50
000
ASUS43 KFSD 271602
RWRSD

WEATHER ROUNDUP FOR SOUTH DAKOTA
NATIONAL WEATHER SERVICE SIOUX FALLS SD
1000 AM CST TUE JAN 27 2015

NOTE: "FAIR" INDICATES FEW OR NO CLOUDS BELOW 12,000 FEET WITH NO
SIGNIFICANT WEATHER AND/OR OBSTRUCTIONS TO VISIBILITY.


SDZ001>005-009-010-012>017-271700-
NORTHWEST AND NORTH CENTRAL SOUTH DAKOTA

CITY           SKY/WX    TMP DP  RH WIND       PRES   REMARKS
BUFFALO          N/A     46  32  58 W12       29.86S
FAITH            N/A     45  30  55 SW5       29.92R
MOBRIDGE       SUNNY     36  31  82 S12       29.90F
$$

SDZ012>016-024>037-041>051-057-063-072>074-271700-
SOUTHWEST AND SOUTH CENTRAL SOUTH DAKOTA

CITY           SKY/WX    TMP DP  RH WIND       PRES   REMARKS
RAPID CTY ARPT SUNNY     58  27  30 W8        29.96S
PIERRE         SUNNY     36  31  82 SE7       29.95S
CUSTER         SUNNY     53  20  27 W8        30.08R
ELLSWORTH AFB  SUNNY     54  30  40 W5        29.96S
PHILIP         SUNNY     44  32  62 W9        29.94S
PINE RIDGE     MOSUNNY   51  29  42 SW12      30.02R
WINNER         FAIR      44  33  65 CALM      29.97R
$$

SDZ004>011-016>023-039-040-271700-
NORTHEAST SOUTH DAKOTA

CITY           SKY/WX    TMP DP  RH WIND       PRES   REMARKS
ABERDEEN       SUNNY     34  31  88 S12       30.02F WCI  25
WATERTOWN      SUNNY     31  29  92 SE8       30.04S WCI  23
SISSETON         N/A     29  29 100 S12       30.06S WCI  19
$$

SDZ017-020-022-023-036>040-048>070-271700-
SOUTHEAST SOUTH DAKOTA

CITY           SKY/WX    TMP DP  RH WIND       PRES   REMARKS
SIOUX FALLS    FOG       30  29  96 SE10      30.09S VSB 1/2 WCI  21
HURON          SUNNY     35  32  88 SE15G21   30.02F WCI  25
MITCHELL       SUNNY     36  33  89 SE14      30.05F
YANKTON        SUNNY     34  30  86 E9        30.09S WCI  26
$$

ABBREVIATIONS USED IN REMARKS
   TC - TEMPERATURE IN CELSIUS
  WCI - WIND CHILL INDEX
   HX - HEAT INDEX
  VSB - VISIBILITY



USA.gov is the U.S. government's official web portal to all federal, state and local government web resources and services.